[[{"header":{"parameterUnit":"m.s-1","parameterCategory":1,"la1":30.2991,"la2":30.254,"lo1":-89.0895,"lo2":-89.0444,"dy":0.0017,"dx":0.0017,"nx":28,"ny":28,"refTime":"2024-04-13T03:00:00:Z","depth":0,"parameterNumber":2,"parameterNumberName":"U-component_of_WINDS"},"data":[0,0,0,0,0,0,0,0,0,0,0,0,0,0,0,0,0,0,0,0,0,0,0,0,0,0,0,0,0,0,0,0,0,0,0,0,0,0,0,0,0,0,0,0,0,0,0,0,0,0,0,0,0,0,0,0,0,0,1.6522,1.6523,0,1.6614,1.6615,1.6616,1.6613,1.6612,1.6611,1.6609,1.6702,1.6706,1.6709,0,0,0,0,0,0,0,0,0,0,0,0,0,1.6343,1.6346,1.6522,1.6523,1.6524,1.6614,1.6615,1.6616,1.6613,1.6612,1.661,1.6609,1.6701,1.6705,1.6709,0,0,0,0,0,0,0,0,0,0,0,0,0,1.6426,1.6347,1.6522,1.6534,1.6536,1.6613,1.6615,1.6616,1.6614,1.6612,1.661,1.6608,1.6699,1.6705,1.671,1.6781,0,0,1.6727,1.6729,0,0,0,0,0,0,0,0,1.6421,1.6433,1.6531,1.6533,1.6536,1.66,1.6586,1.6672,1.6614,1.6584,1.6609,1.6607,1.667,1.6677,1.6699,1.6786,1.679,1.6727,1.6731,1.6733,1.6734,0,0,0,0,0,0,0,1.6416,1.6429,1.6558,1.6532,1.6535,1.6534,1.6544,1.6602,1.6636,1.6587,1.6587,1.6598,1.667,1.6693,1.6701,1.6791,1.6727,1.6732,1.6735,1.6737,1.6939,1.6941,0,0,0,0,0,0,1.6408,1.6424,1.6555,1.6561,1.6473,1.6539,1.655,1.6581,1.6636,1.6642,1.6599,1.6597,1.6685,1.6694,1.6704,1.6789,1.6733,1.6738,1.6741,1.6937,1.6939,1.6942,0,0,0,0,0,0,1.6404,1.6419,1.6552,1.6493,1.6509,1.6544,1.6579,1.6584,1.6607,1.6645,1.6651,1.6616,1.6684,1.6696,1.6762,1.6792,1.674,1.6745,1.6934,1.6938,1.694,1.6961,0,0,0,0,0,0,1.6399,1.6418,1.6446,1.6493,1.6513,1.6609,1.6581,1.6587,1.6616,1.6615,1.6663,1.6669,1.6683,1.6754,1.6767,1.6799,1.675,1.6932,1.6936,1.6939,1.6958,1.6964,1.697,0,0,0,0,0,1.6392,1.6448,1.6447,1.6463,1.6548,1.661,1.6621,1.6637,1.6619,1.6647,1.6671,1.6667,1.6787,1.676,1.6776,1.6809,1.693,1.6935,1.6939,1.6955,1.6963,1.697,0,0,0,0,0,0,1.6404,1.6455,1.6454,1.6528,1.6565,1.661,1.6645,1.6646,1.6688,1.6685,1.6702,1.6713,1.6778,1.6801,1.677,1.688,1.6856,1.6864,1.6863,1.6871,1.6877,1.6869,1.6754,0,0,0,0,0,1.6415,1.6461,1.6504,1.6564,1.6583,1.6611,1.6639,1.6648,1.6686,1.6702,1.6731,1.6769,1.6814,1.6844,1.6889,1.6961,1.6971,1.6992,1.6998,1.7003,1.7009,1.7047,1.7056,1.6957,1.6957,1.6957,0,0,1.6438,1.6472,1.65,1.6567,1.6597,1.6644,1.6624,1.6675,1.6709,1.671,1.6772,1.6795,1.6838,1.6907,1.6939,1.6927,1.7039,1.7009,1.7013,1.7016,1.7053,1.7062,1.7071,1.696,1.696,1.6959,0,0,1.6504,1.6535,1.6588,1.6618,1.6663,1.6681,1.6694,1.6739,1.6754,1.6818,1.6818,1.6859,1.6939,1.6968,1.6994,1.707,1.7067,1.7084,1.7116,1.7153,1.7161,1.7167,1.7192,1.7201,1.7091,1.7091,1.7091,0,1.6526,1.6598,1.6615,1.6665,1.6694,1.6697,1.6749,1.6777,1.6835,1.6854,1.6841,1.6939,1.6969,1.7043,1.7062,1.7083,1.7097,1.7078,1.7158,1.7165,1.7172,1.7196,1.7206,1.7092,1.7092,1.7092,1.7092,0,1.6622,1.6672,1.6709,1.6764,1.6797,1.6848,1.6872,1.6903,1.6909,1.6929,1.6992,1.7028,1.7078,1.7097,1.7104,1.7172,1.7164,1.7155,1.713,1.7183,1.7205,1.7215,1.7094,1.7094,1.7093,1.7093,0,0,1.6697,1.676,1.6773,1.6797,1.6847,1.6885,1.6936,1.6986,1.7011,1.7051,1.7093,1.716,1.7151,1.718,1.719,1.7223,1.7278,1.7209,1.721,1.7219,1.7353,1.7357,1.7368,1.7277,1.7279,1.7281,1.7348,0,1.6766,1.6857,1.6873,1.6952,1.6996,1.6999,1.7043,1.7078,1.7098,1.7137,1.7159,1.7205,1.7191,1.7208,1.7241,1.7264,1.7304,1.726,1.7315,1.7316,1.7301,1.738,1.7386,1.7448,1.7357,1.7359,1.736,0,1.6859,1.69,1.6983,1.7025,1.7044,1.7084,1.713,1.7169,1.7208,1.7219,1.7251,1.7257,1.7309,1.7284,1.7355,1.7324,1.7347,1.7362,1.7365,1.7369,1.734,1.7384,1.7469,1.7477,1.7375,1.7374,1.7372,0,1.6901,1.6978,1.7037,1.7058,1.711,1.7137,1.7159,1.7197,1.7225,1.7265,1.7283,1.7329,1.7354,1.7389,1.7406,1.7387,1.7475,1.7452,1.7485,1.7484,1.7501,1.75,1.7589,1.752,1.752,1.752,1.752,0,1.6975,1.7025,1.7057,1.7093,1.7149,1.7167,1.7221,1.7243,1.7276,1.7316,1.7322,1.7359,1.7381,1.7421,1.7435,1.749,1.7502,1.7512,1.7514,1.751,1.7508,1.7524,1.7519,1.7523,1.7522,1.7522,1.7521,0,1.7032,1.7055,1.7119,1.7163,1.7175,1.7214,1.725,1.7285,1.7304,1.7354,1.7367,1.7397,1.7444,1.7466,1.7524,1.7534,1.7596,1.7597,1.7582,1.7583,1.7613,1.7609,1.7714,1.7727,1.7652,1.7653,1.7653,0,1.7076,1.7115,1.7162,1.7189,1.7212,1.7256,1.7285,1.7304,1.7334,1.738,1.7409,1.7456,1.7495,1.757,1.7596,1.764,1.7641,1.7675,1.7648,1.7641,1.7639,1.7635,1.7638,1.7679,1.768,1.768,1.7681,0,1.7152,1.7161,1.7203,1.7248,1.7282,1.7319,1.7354,1.7376,1.7401,1.7433,1.7481,1.7511,1.7571,1.7617,1.7663,1.7685,1.7686,1.7689,1.7699,1.7693,1.7682,1.7686,1.7593,1.7686,1.7686,1.7685,1.7685,1.7685,1.7202,1.7236,1.7274,1.7319,1.7348,1.7381,1.7415,1.7439,1.7479,1.7529,1.7538,1.7589,1.7625,1.7687,1.7711,1.775,1.7742,1.7757,1.776,1.7763,1.7763,1.7678,1.7759,1.7759,1.7759,1.7759,1.7759,0,1.7276,1.7301,1.7343,1.7392,1.7427,1.7427,1.7466,1.7495,1.7539,1.7574,1.7612,1.7666,1.7711,1.7741,1.7786,1.7811,1.7813,1.7822,1.7819,1.7824,1.7769,1.7755,1.782,1.782,1.782,1.782,1.782,1.782,1.7319,1.7374,1.7388,1.7458,1.7482,1.7532,1.7554,1.7584,1.7611,1.7672,1.7709,1.7729,1.7761,1.7808,1.7848,1.7856,1.7871,1.7881,1.7888,1.7835,1.7828,1.7822,1.7809,1.7884,1.7884,1.7939,1.794,1.794]},{"header":{"parameterUnit":"m.s-1","parameterCategory":1,"la1":30.2991,"la2":30.254,"lo1":-89.0895,"lo2":-89.0444,"dy":0.0017,"dx":0.0017,"nx":28,"ny":28,"refTime":"2024-04-13T03:00:00:Z","depth":0,"parameterNumber":3,"parameterNumberName":"V-component_of_WINDS"},"data":[0,0,0,0,0,0,0,0,0,0,0,0,0,0,0,0,0,0,0,0,0,0,0,0,0,0,0,0,0,0,0,0,0,0,0,0,0,0,0,0,0,0,0,0,0,0,0,0,0,0,0,0,0,0,0,0,0,0,1.8473,1.8474,0,1.8582,1.8584,1.8585,1.8591,1.859,1.8589,1.8588,1.8697,1.8701,1.8705,0,0,0,0,0,0,0,0,0,0,0,0,0,1.8266,1.827,1.8473,1.8474,1.8476,1.8582,1.8584,1.8585,1.8592,1.859,1.8589,1.8587,1.8695,1.87,1.8705,0,0,0,0,0,0,0,0,0,0,0,0,0,1.8364,1.8271,1.8473,1.8492,1.8495,1.8582,1.8584,1.8586,1.8592,1.859,1.8588,1.8586,1.8694,1.87,1.8706,1.878,0,0,1.8724,1.8727,0,0,0,0,0,0,0,0,1.8358,1.8371,1.8488,1.8491,1.8494,1.8571,1.8551,1.8651,1.8592,1.8555,1.8588,1.8586,1.8656,1.8665,1.869,1.8785,1.879,1.8725,1.8728,1.8731,1.8733,0,0,0,0,0,0,0,1.8351,1.8366,1.8516,1.8489,1.8493,1.8494,1.8505,1.857,1.8615,1.8558,1.8559,1.8572,1.8658,1.8684,1.8692,1.8792,1.8725,1.873,1.8734,1.8736,1.8952,1.8954,0,0,0,0,0,0,1.8341,1.8361,1.8513,1.852,1.842,1.8499,1.8512,1.8548,1.8614,1.8622,1.8573,1.8572,1.8674,1.8685,1.8696,1.8787,1.8731,1.8737,1.874,1.895,1.8952,1.8954,0,0,0,0,0,0,1.8337,1.8355,1.8508,1.844,1.846,1.8504,1.8545,1.8552,1.8578,1.8625,1.8633,1.8592,1.8673,1.8688,1.8759,1.8791,1.8739,1.8745,1.8947,1.895,1.8953,1.897,0,0,0,0,0,0,1.8331,1.8353,1.8383,1.8441,1.8464,1.8571,1.8547,1.8555,1.8589,1.8588,1.8645,1.8653,1.8673,1.875,1.8765,1.8798,1.875,1.8945,1.8949,1.8952,1.8967,1.8973,1.8979,0,0,0,0,0,1.8324,1.8383,1.8385,1.8403,1.8502,1.8573,1.8586,1.8608,1.8591,1.8621,1.8651,1.8651,1.8785,1.8757,1.8774,1.881,1.8943,1.8947,1.8952,1.8964,1.8972,1.8979,0,0,0,0,0,0,1.8328,1.8391,1.8394,1.8474,1.8518,1.8574,1.8612,1.8616,1.8665,1.8662,1.8687,1.87,1.877,1.8797,1.8765,1.8884,1.8862,1.887,1.8865,1.8873,1.8879,1.8871,1.8755,0,0,0,0,0,1.8338,1.8391,1.8443,1.8509,1.8531,1.8568,1.8599,1.8613,1.8659,1.8677,1.8713,1.8757,1.8808,1.8842,1.8892,1.897,1.8982,1.9003,1.9009,1.9013,1.902,1.9062,1.9071,1.897,1.897,1.897,0,0,1.836,1.8401,1.8433,1.8511,1.8547,1.86,1.8584,1.8641,1.868,1.8686,1.8756,1.8783,1.8833,1.8908,1.8942,1.8932,1.9051,1.9019,1.9023,1.9027,1.9068,1.9077,1.9086,1.8973,1.8972,1.8972,0,0,1.8428,1.8465,1.8523,1.8559,1.8613,1.8636,1.865,1.8705,1.8723,1.8794,1.8799,1.8845,1.8934,1.8969,1.8998,1.9076,1.9077,1.9091,1.9123,1.9163,1.9171,1.9178,1.9205,1.9215,1.9098,1.9098,1.9098,0,1.8448,1.853,1.8552,1.861,1.8643,1.865,1.8709,1.8742,1.8809,1.8831,1.8819,1.893,1.8964,1.9046,1.9065,1.9089,1.9104,1.9086,1.9168,1.9176,1.9183,1.9209,1.9219,1.9099,1.9099,1.9099,1.9099,0,1.8551,1.8607,1.8648,1.8713,1.8751,1.8808,1.8838,1.8873,1.8883,1.8907,1.8977,1.9018,1.9076,1.9096,1.9106,1.918,1.9171,1.9163,1.9141,1.9194,1.9218,1.9229,1.9101,1.9101,1.9101,1.91,0,0,1.8627,1.8702,1.8717,1.8746,1.8805,1.8848,1.8904,1.8961,1.899,1.9036,1.9083,1.9157,1.9149,1.9182,1.9196,1.9231,1.9288,1.9218,1.922,1.923,1.937,1.9376,1.9387,1.9289,1.9291,1.9293,1.9366,0,1.87,1.8803,1.8824,1.8912,1.8963,1.8969,1.9018,1.9059,1.9082,1.9127,1.9153,1.9205,1.9191,1.9211,1.9246,1.9274,1.9317,1.9269,1.9332,1.9334,1.932,1.9401,1.9407,1.9475,1.9376,1.9377,1.9379,0,1.8801,1.8849,1.8942,1.8992,1.9014,1.9058,1.9111,1.9155,1.92,1.9214,1.925,1.926,1.9316,1.929,1.9368,1.9335,1.9362,1.9379,1.9382,1.9389,1.936,1.941,1.9497,1.9507,1.9394,1.9393,1.9392,0,1.8846,1.8933,1.9,1.9024,1.9085,1.9115,1.9142,1.9185,1.9217,1.9263,1.9284,1.9335,1.9363,1.9402,1.9424,1.9403,1.95,1.9476,1.9512,1.9512,1.9533,1.9532,1.9626,1.955,1.955,1.9549,1.9549,0,1.8926,1.8983,1.9021,1.9062,1.9124,1.9147,1.9208,1.9234,1.9272,1.9317,1.9325,1.9366,1.9393,1.9437,1.9454,1.9516,1.9528,1.954,1.9544,1.954,1.9538,1.9558,1.9554,1.9552,1.9552,1.9551,1.9551,0,1.8988,1.9016,1.9089,1.9139,1.9153,1.9197,1.924,1.9279,1.9301,1.9358,1.9372,1.9408,1.9461,1.9486,1.9551,1.9563,1.9632,1.9633,1.9617,1.9619,1.9653,1.965,1.9764,1.9779,1.9693,1.9694,1.9694,0,1.9038,1.9081,1.9136,1.9167,1.9194,1.9244,1.9277,1.93,1.9333,1.9387,1.9419,1.9472,1.9516,1.96,1.963,1.968,1.9682,1.9718,1.9689,1.9683,1.9682,1.9679,1.9683,1.9724,1.9725,1.9725,1.9726,0,1.9123,1.9134,1.9182,1.9234,1.9272,1.9314,1.9355,1.938,1.9409,1.9446,1.95,1.9534,1.9601,1.9653,1.9704,1.9729,1.9732,1.9734,1.9745,1.9742,1.9731,1.9737,1.9631,1.9732,1.9731,1.9731,1.9731,1.973,1.918,1.9218,1.9263,1.9315,1.9348,1.9386,1.9425,1.9451,1.9498,1.9554,1.9564,1.9621,1.9663,1.9732,1.9759,1.9803,1.9794,1.981,1.9814,1.9818,1.982,1.9723,1.9812,1.9812,1.9812,1.9812,1.9812,0,1.9265,1.9294,1.9341,1.9398,1.9439,1.9438,1.9482,1.9516,1.9567,1.9606,1.9648,1.971,1.976,1.9793,1.9844,1.9872,1.9875,1.9885,1.9883,1.9889,1.9825,1.981,1.9882,1.9882,1.9882,1.9882,1.9882,1.9882,1.9315,1.9379,1.9395,1.9475,1.9503,1.956,1.9585,1.9619,1.965,1.9719,1.9761,1.9782,1.9818,1.9871,1.9916,1.9924,1.9942,1.9953,1.9961,1.9901,1.9893,1.9886,1.9873,1.9956,1.9956,2.0021,2.0021,2.0022]}]]